EW6030 Weather Reports


Display with metric or nautical units.
time (UTC)temp
F
wind
direction
speed
MPH
gust
MPH
rain 1hr
in
rain 24hr
in
rain mn
in
humidity
%
barometer
mb
20260502223054 60 95 2.0 0.0 0.00 0.00 0.00 32 1012.1
20260502221552 60 93 1.0 0.0 0.00 0.00 0.00 34 1012.1
20260502220051 58 63 1.0 0.0 0.00 0.00 0.00 33 1012.4
20260502214549 59 116 2.0 0.0 0.00 0.00 0.00 33 1012.5
20260502213056 59 60 2.0 0.0 0.00 0.00 0.00 35 1012.6
20260502211548 58 47 3.0 0.0 0.00 0.00 0.00 33 1012.7
20260502210046 58 156 1.0 0.0 0.00 0.00 0.00 34 1012.8
20260502204545 59 73 1.0 0.0 0.00 0.00 0.00 34 1012.9
20260502203043 58 64 2.0 0.0 0.00 0.00 0.00 35 1013.3
20260502201547 57 51 1.0 0.0 0.00 0.00 0.00 35 1013.5
20260502200039 58 76 1.0 0.0 0.00 0.00 0.00 35 1013.9
20260502194536 58 74 0.0 0.0 0.00 0.00 0.00 39 1014.0
20260502193034 57 134 1.0 0.0 0.00 0.00 0.00 38 1014.2
20260502191533 57 38 2.0 0.0 0.00 0.00 0.00 37 1014.3
20260502190032 56 77 2.0 0.0 0.00 0.00 0.00 37 1014.5
20260502184528 55 156 1.0 0.0 0.00 0.00 0.00 39 1014.9
20260502183027 56 118 1.0 0.0 0.00 0.00 0.00 37 1015.0
20260502181526 55 75 0.0 0.0 0.00 0.00 0.00 39 1015.2
20260502163015 56 62 1.0 0.0 0.00 0.00 0.00 40 1016.2
20260502161513 54 72 0.0 0.0 0.00 0.00 0.00 41 1016.3
20260502151502 52 116 1.0 0.0 0.00 0.00 0.00 48 1016.9
20260502123028 36 251 0.0 0.0 0.00 0.00 0.00 72 1017.5
20260502121538 35 251 0.0 0.0 0.00 0.00 0.00 72 1017.5
20260502114526 33 251 0.0 0.0 0.00 0.00 0.00 73 1017.4
20260502113025 32 251 0.0 0.0 0.00 0.00 0.00 73 1017.3
20260502111526 32 251 0.0 0.0 0.00 0.00 0.00 73 1017.1
20260502110031 32 251 0.0 0.0 0.00 0.00 0.00 73 1017.0
20260502104524 32 251 0.0 0.0 0.00 0.00 0.00 74 1017.1
20260502103023 32 251 0.0 0.0 0.00 0.00 0.00 74 1017.0
20260502101522 32 251 0.0 0.0 0.00 0.00 0.00 74 1017.0
20260502091520 32 251 0.0 0.0 0.00 0.00 0.00 75 1016.9
20260502071508 35 251 0.0 0.0 0.00 0.00 0.00 77 1016.7
20260502070018 35 251 0.0 0.0 0.00 0.00 0.00 78 1016.8
20260502064507 35 251 0.0 0.0 0.00 0.00 0.00 78 1016.9
20260502063007 35 251 0.0 0.0 0.00 0.00 0.00 77 1017.1
20260502061505 35 251 0.0 0.0 0.00 0.00 0.00 77 1017.1
20260502060005 35 251 0.0 0.0 0.00 0.00 0.00 76 1017.1
20260502054505 35 251 0.0 0.0 0.00 0.00 0.00 76 1017.0
20260502053005 34 251 0.0 0.0 0.00 0.00 0.00 75 1017.1
20260502051503 35 251 0.0 0.0 0.00 0.00 0.00 75 1017.1
20260502050003 35 251 0.0 0.0 0.00 0.00 0.00 74 1017.2
20260502044600 35 251 0.0 0.0 0.00 0.00 0.00 73 1017.0
20260502043107 36 251 0.0 0.0 0.00 0.00 0.00 73 1016.9
20260502041557 36 251 0.0 0.0 0.00 0.00 0.00 73 1016.9
20260502040054 36 251 0.0 0.0 0.00 0.00 0.00 71 1016.7
20260502034554 37 251 0.0 0.0 0.00 0.00 0.00 69 1016.7
20260502033050 38 251 0.0 0.0 0.00 0.00 0.00 70 1016.6
20260502031550 38 251 0.0 0.0 0.00 0.00 0.00 68 1016.7
20260502030053 38 251 0.0 0.0 0.00 0.00 0.00 68 1016.5
20260502024552 39 251 0.0 0.0 0.00 0.00 0.00 66 1016.4
20260502023051 39 251 0.0 0.0 0.00 0.00 0.00 66 1016.3
20260502021547 40 251 0.0 0.0 0.00 0.00 0.00 63 1016.4
20260502020045 41 251 0.0 0.0 0.00 0.00 0.00 60 1016.2
20260502014548 42 251 0.0 0.0 0.00 0.00 0.00 59 1016.2
20260502013047 43 251 0.0 0.0 0.00 0.00 0.00 56 1016.1
20260502011542 43 251 0.0 0.0 0.00 0.00 0.00 54 1016.0
20260502010049 44 251 0.0 0.0 0.00 0.00 0.00 54 1015.8
20260502004557 45 251 0.0 0.0 0.00 0.00 0.00 51 1015.6
20260502003037 46 251 0.0 0.0 0.00 0.00 0.00 50 1015.5
20260502001536 46 251 0.0 0.0 0.00 0.00 0.00 49 1015.3
20260502000049 47 277 0.0 0.0 0.00 0.00 0.00 49 1015.3
20260501234535 47 185 0.0 0.0 0.00 0.00 0.00 48 1015.2
20260501233039 47 262 0.0 0.0 0.00 0.00 0.00 49 1015.1
20260501231539 49 174 0.0 0.0 0.00 0.00 0.00 47 1015.1
20260501230033 48 274 0.0 0.0 0.00 0.00 0.00 48 1015.0
20260501224537 49 254 0.0 0.0 0.00 0.00 0.00 47 1015.1